(285596) = 2000 QM131 = 2007 DT56

Discovered at Socorro on 2000-08-24 by LINEAR.

Orbit

Orbit type: Main Belt

Note: WebGL enabled browser required.

epoch2024-03-31.0
epoch JD2460400.5
perihelion date2023-03-26.61178
perihelion JD2460030.11178
argument of perihelion (°)205.76014
ascending node (°)153.78318
inclination (°)14.77432
eccentricity0.2115170
perihelion distance (AU)2.1380743
Tisserand w.r.t. Jupiter3.3
ΔV w.r.t. Earth (km/sec)10.2
semimajor axis (AU)2.7116302
mean anomaly (°)81.75519
mean daily motion (°/day)0.22072840
aphelion distance (AU)3.285
period (years)4.47
P-vector [x]0.99362046
P-vector [y]0.02494556
P-vector [z]-0.10998226
Q-vector [x]-0.00518386
Q-vector [y]0.98430118
Q-vector [z]0.17642084
absolute magnitude16.41
phase slope0.15
uncertainty0
referenceMPEC 2024-C145
observations used473
oppositions13
arc length (days)9093
first opposition used1999
last opposition used2024
residual rms (arc-secs)0.74
perturbers coarse indicatorM-v
perturbers precise indicator003Ek
first observation date used1999-03-22.0
last observation date used2024-02-12.0
computer nameMPCLINUX
Minimum Orbit Intersection Distances (in AU)
for orbit epoch: 2460200.5, reference: E2024-CE5
Mercury1.76968
Venus1.41344
Earth1.1422
Mars0.76107
Jupiter2.16179
Saturn6.10899
Uranus15.1794
Neptune27.3023

Observations

485 total observations over interval: 1999 03 22.418290 – 2024 02 12.331750
These data are available for download (format description).

Date (UT) J2000 RA J2000 Dec Magn Location Ref
1999 03 22.418290 14 59 22.016 +00 19 03.37 21.41 V 645 – Apache Point-Sloan Digital Sky Survey MPS 286841
1999 03 22.421762 14 59 21.954 +00 19 04.94 22.24   645 – Apache Point-Sloan Digital Sky Survey MPS 286841
2000 08 24.26782 22 02 31.62 -09 59 16.0 18.8   704 – Lincoln Laboratory ETS, New Mexico MPS 18280
2000 08 24.28050 22 02 31.00 -09 59 26.3 18.9   704 – Lincoln Laboratory ETS, New Mexico MPS 18280
2000 08 24.30596 22 02 29.97 -09 59 47.2 19.3   704 – Lincoln Laboratory ETS, New Mexico MPS 18280
2000 08 24.31870 22 02 29.41 -09 59 57.5 18.6   704 – Lincoln Laboratory ETS, New Mexico MPS 18280
2000 09 02.20642 21 56 44.89 -11 59 52.6 18.3   704 – Lincoln Laboratory ETS, New Mexico MPS 18280
2000 09 02.21987 21 56 44.38 -12 00 03.8 19.0   704 – Lincoln Laboratory ETS, New Mexico MPS 18280
2000 09 02.23335 21 56 43.83 -12 00 14.1 19.2   704 – Lincoln Laboratory ETS, New Mexico MPS 18280
2000 09 05.19495 21 54 59.11 -12 38 54.9 18.5   704 – Lincoln Laboratory ETS, New Mexico MPS 18280
2000 09 05.20842 21 54 58.63 -12 39 07.3 18.6   704 – Lincoln Laboratory ETS, New Mexico MPS 18280
2000 09 05.22176 21 54 58.24 -12 39 16.3 18.7   704 – Lincoln Laboratory ETS, New Mexico MPS 18280
2000 09 05.23513 21 54 57.69 -12 39 26.8 18.7   704 – Lincoln Laboratory ETS, New Mexico MPS 18280
2000 09 05.24849 21 54 57.25 -12 39 36.5 18.6   704 – Lincoln Laboratory ETS, New Mexico MPS 18280
2005 11 27.27133 04 26 26.41 -03 25 45.6 19.1 R 699 – Lowell Observatory-LONEOS MPS 286841
2005 11 27.30418 04 26 24.62 -03 25 49.8   699 – Lowell Observatory-LONEOS MPS 286841
2005 11 27.33708 04 26 22.74 -03 25 49.5   699 – Lowell Observatory-LONEOS MPS 286841
2005 11 27.36996 04 26 20.81 -03 25 53.2   699 – Lowell Observatory-LONEOS MPS 286841
2007 02 21.35409 10 32 14.49 +09 35 52.9 20.9 V G96 – Mt. Lemmon Survey MPS 201633
2007 02 21.36094 10 32 14.13 +09 35 56.5 21.0 V G96 – Mt. Lemmon Survey MPS 201633
2007 02 21.36784 10 32 13.81 +09 36 00.2 20.9 V G96 – Mt. Lemmon Survey MPS 201633
2007 02 21.37472 10 32 13.41 +09 36 03.6 20.8 V G96 – Mt. Lemmon Survey MPS 201633
2007 02 23.24954 10 30 44.31 +09 51 39.9 20.4 V G96 – Mt. Lemmon Survey MPS 201633
2007 02 23.25369 10 30 44.13 +09 51 41.7 20.2 V G96 – Mt. Lemmon Survey MPS 201633
2007 02 23.25784 10 30 43.95 +09 51 44.0 20.3 V G96 – Mt. Lemmon Survey MPS 201633
2007 02 23.26206 10 30 43.70 +09 51 46.1 20.3 V G96 – Mt. Lemmon Survey MPS 201633
2007 02 23.29049 10 30 42.15 +09 51 58.2 18.6 V G96 – Mt. Lemmon Survey MPS 286841
2007 02 23.29260 10 30 42.12 +09 51 58.4 19.1 V G96 – Mt. Lemmon Survey MPS 286841
2007 02 23.29685 10 30 42.01 +09 52 03.5 20.2 V G96 – Mt. Lemmon Survey MPS 286841
2007 03 14.29392 10 16 16.46 +12 21 33.3 21.2 V G96 – Mt. Lemmon Survey MPS 202868
2007 03 14.30133 10 16 16.14 +12 21 36.5 21.4 V G96 – Mt. Lemmon Survey MPS 202868
2007 03 14.30882 10 16 15.85 +12 21 39.8 21.1 V G96 – Mt. Lemmon Survey MPS 202868
2007 03 14.31630 10 16 15.49 +12 21 43.2 21.3 V G96 – Mt. Lemmon Survey MPS 202868
2009 08 15.38604 23 08 21.30 -06 09 12.3 19.0 V 703 – Catalina Sky Survey MPS 291654
2009 08 15.39401 23 08 21.01 -06 09 18.2 18.9 V 703 – Catalina Sky Survey MPS 291654
2009 08 15.40198 23 08 20.90 -06 09 24.2 18.8 V 703 – Catalina Sky Survey MPS 291654
2009 08 19.15068 23 06 52.47 -06 57 34.9 18.6 V J75 – OAM Observatory, La Sagra MPS 291654
2009 08 19.16413 23 06 51.96 -06 57 45.5 18.7 V J75 – OAM Observatory, La Sagra MPS 291654
2009 08 19.17747 23 06 51.56 -06 57 55.5 18.9 V J75 – OAM Observatory, La Sagra MPS 291654
2009 08 20.01649 23 06 29.90 -07 09 04.9 18.2 V J75 – OAM Observatory, La Sagra MPS 291655
2009 08 20.02885 23 06 29.54 -07 09 15.1 18.6 V J75 – OAM Observatory, La Sagra MPS 291655
2009 08 20.04117 23 06 29.17 -07 09 24.6 18.3 V J75 – OAM Observatory, La Sagra MPS 291655
2009 08 21.00979 23 06 02.69 -07 22 25.5 18.2 V J75 – OAM Observatory, La Sagra MPS 292559
2009 08 21.02211 23 06 02.33 -07 22 35.8 18.6 V J75 – OAM Observatory, La Sagra MPS 292559
2009 08 21.03444 23 06 01.94 -07 22 45.2 18.6 V J75 – OAM Observatory, La Sagra MPS 292559
2009 08 26.00880 23 03 31.11 -08 31 36.0 18.8 V J75 – OAM Observatory, La Sagra MPS 292559
2009 08 26.02115 23 03 30.71 -08 31 46.3 18.6 V J75 – OAM Observatory, La Sagra MPS 292559
2009 08 26.03354 23 03 30.23 -08 31 56.6 18.6 V J75 – OAM Observatory, La Sagra MPS 292559
2009 08 26.99683 23 02 58.69 -08 45 34.9 18.3 V J75 – OAM Observatory, La Sagra MPS 294367
2009 08 27.00917 23 02 58.24 -08 45 45.5 18.2 V J75 – OAM Observatory, La Sagra MPS 294367
2009 08 27.02150 23 02 57.79 -08 45 55.9 18.3 V J75 – OAM Observatory, La Sagra MPS 294368
2009 08 29.97655 23 01 16.96 -09 28 07.6 18.2 V J75 – OAM Observatory, La Sagra MPS 294368
2009 08 29.98909 23 01 16.48 -09 28 18.5 18.5 V J75 – OAM Observatory, La Sagra MPS 294368
2009 08 30.00156 23 01 15.99 -09 28 29.2 18.0 V J75 – OAM Observatory, La Sagra MPS 294368
2009 09 26.25640 22 46 07.06 -15 23 49.9 19.7 V G96 – Mt. Lemmon Survey MPS 296826
2009 09 26.26260 22 46 06.88 -15 23 53.8 19.6 V G96 – Mt. Lemmon Survey MPS 296826
2009 09 26.26866 22 46 06.78 -15 23 57.3 19.5 V G96 – Mt. Lemmon Survey MPS 296826
2009 09 26.27486 22 46 06.56 -15 24 01.0 19.4 V G96 – Mt. Lemmon Survey MPS 296826
2009 09 27.24169 22 45 44.96 -15 33 44.9 18.6 V G96 – Mt. Lemmon Survey MPS 296826
2009 09 27.24778 22 45 44.82 -15 33 48.4 18.9 V G96 – Mt. Lemmon Survey MPS 296826
2009 09 27.25390 22 45 44.67 -15 33 52.0 18.9 V G96 – Mt. Lemmon Survey MPS 296826
2009 09 27.31444 22 45 43.20 -15 34 28.2 18.8 V G96 – Mt. Lemmon Survey MPS 296826
2009 09 27.31617 22 45 43.16 -15 34 29.1 18.7 V G96 – Mt. Lemmon Survey MPS 296826
2009 09 27.31778 22 45 43.12 -15 34 30.0 18.8 V G96 – Mt. Lemmon Survey MPS 296826
2009 09 27.31939 22 45 43.05 -15 34 31.1 18.8 V G96 – Mt. Lemmon Survey MPS 296826
2009 09 27.51975 22 45 38.98 -15 36 22.5 19.2 V E12 – Siding Spring Survey MPS 296826
2009 09 27.53352 22 45 38.62 -15 36 30.9 19.2 V E12 – Siding Spring Survey MPS 296826
2009 09 27.54738 22 45 38.19 -15 36 39.3 18.9 V E12 – Siding Spring Survey MPS 296826
2009 09 27.56142 22 45 37.98 -15 36 46.7 18.8 V E12 – Siding Spring Survey MPS 296826
2012 03 25.33756 12 52 58.36 +07 23 40.3 21.1 V G96 – Mt. Lemmon Survey MPS 420164
2012 03 25.34628 12 52 57.82 +07 23 44.8 20.4 V G96 – Mt. Lemmon Survey MPS 420164
2012 03 25.35499 12 52 57.57 +07 23 49.1 21.1 V G96 – Mt. Lemmon Survey MPS 420164
2012 03 25.36368 12 52 57.10 +07 23 52.8 20.7 V G96 – Mt. Lemmon Survey MPS 420164
2014 11 19.34330 05 14 57.70 -00 55 14.3 19.5 r G45 – Space Surveillance Telescope, Atom Site MPS 558051
2014 11 19.34882 05 14 57.39 -00 55 15.3 19.8 r G45 – Space Surveillance Telescope, Atom Site MPS 558051
2014 11 19.35297 05 14 57.22 -00 55 16.5 19.8 r G45 – Space Surveillance Telescope, Atom Site MPS 558051
2014 11 19.35859 05 14 56.91 -00 55 17.7 19.8 r G45 – Space Surveillance Telescope, Atom Site MPS 558051
2014 11 22.53087 05 12 21.771 -01 05 43.54 19.5 w F51 – Pan-STARRS 1, Haleakala MPS 549385
2014 11 22.54311 05 12 21.130 -01 05 45.73 19.5 w F51 – Pan-STARRS 1, Haleakala MPS 549385
2014 11 22.55531 05 12 20.486 -01 05 47.84 19.5 w F51 – Pan-STARRS 1, Haleakala MPS 549385
2014 11 22.56758 05 12 19.843 -01 05 49.98 19.4 w F51 – Pan-STARRS 1, Haleakala MPS 549385
2014 11 26.32181 05 09 04.67 -01 15 12.7 19.6 r G45 – Space Surveillance Telescope, Atom Site MPS 566898
2014 11 26.32731 05 09 04.37 -01 15 13.6 19.6 r G45 – Space Surveillance Telescope, Atom Site MPS 566898
2014 11 26.33694 05 09 03.85 -01 15 15.1 20.0 r G45 – Space Surveillance Telescope, Atom Site MPS 566899
2014 11 26.34108 05 09 03.61 -01 15 15.3 20.3 r G45 – Space Surveillance Telescope, Atom Site MPS 566899
2014 11 28.40174 05 07 12.08 -01 18 55.7 20.0 V 703 – Catalina Sky Survey MPS 551279
2014 11 28.41169 05 07 11.43 -01 18 56.8 20.0 V 703 – Catalina Sky Survey MPS 551279
2014 11 28.42163 05 07 10.91 -01 18 57.5 20.1 V 703 – Catalina Sky Survey MPS 551279
2014 11 28.43157 05 07 10.32 -01 18 58.0 20.2 V 703 – Catalina Sky Survey MPS 551279
2014 12 11.41358 04 55 05.312 -01 17 09.88 20.0 r F51 – Pan-STARRS 1, Haleakala MPS 552897
2014 12 11.43823 04 55 03.893 -01 17 07.27 19.9 r F51 – Pan-STARRS 1, Haleakala MPS 552897
2014 12 11.45027 04 55 03.204 -01 17 05.99 19.8 r F51 – Pan-STARRS 1, Haleakala MPS 552897
2014 12 20.23943 04 47 23.23 -00 51 34.9 20.1 r G45 – Space Surveillance Telescope, Atom Site MPS 566899
